Regional Weather Roundup
Issued by NWS

Home | Current Version | Previous Version | Text Only | Print | Product List | Glossary Off
Versions: 1 2 3 4 5 6 7 8 9 10 11 12 13 14 15 16 17 18 19 20 21 22 23 24 25 26 27 28 29 30 31 32 33 34 35 36 37 38 39 40 41 42 43 44 45 46 47 48 49 50

783
ASUS43 KLSX 301910
RWRMO

WEATHER SUMMARY FOR MISSOURI
NATIONAL WEATHER SERVICE SPRINGFIELD MO
200 PM CDT TUE AUG 30 2016

NOTE: "FAIR" INDICATES FEW OR NO CLOUDS BELOW 12,000 FEET WITH NO
       SIGNIFICANT WEATHER AND/OR OBSTRUCTIONS TO VISIBILITY.
       CURRENT SKY AND/OR WEATHER CONDITIONS ARE NOT AVAILABLE FOR
       CHILLICOTHE AND FARMINGTON.

MOZ001>031-035>038-043-044-053-054-302000-
...NORTHERN AND WESTERN MISSOURI...

CITY           SKY/WX    TMP DP  RH WIND       PRES   REMARKS
KANSAS CTY INT MOSUNNY   84  70  62 NE5       30.15F
KANSAS C DTWN  SUNNY     87  73  62 VRB7      30.12F HX  94
LEE`S SUMMIT   PTSUNNY   83  72  69 CALM      30.15F
ST JOSEPH      MOSUNNY   85  72  65 N7        30.14F HX  91
CHILLICOTHE      N/A     80  75  84 CALM      30.15F
KIRKSVILLE     MOSUNNY   83  71  67 N6        30.15F

$$
MOZ066>068-077>081-088>096-101>105-302000-
...SOUTHWEST MISSOURI...

CITY           SKY/WX    TMP DP  RH WIND       PRES   REMARKS
SPRINGFIELD    SUNNY     91  68  46 NE8       30.11F HX  95
JOPLIN         MOSUNNY   91  69  48 CALM      30.11F HX  96
BRANSON        PTSUNNY   86  73  66 CALM      30.14F HX  93

$$
MOZ032>034-039>042-045>050-055>058-069>072-302000-
...CENTRAL MISSOURI...

CITY           SKY/WX    TMP DP  RH WIND       PRES   REMARKS
COLUMBIA       CLOUDY    77  73  87 E14       30.15R
JEFFERSON CITY CLOUDY    79  71  76 NE17G23   30.11R THUNDER
ROLLA          SUNNY     89  72  56 N5        30.12F HX  96
SEDALIA        MOSUNNY   89  73  59 N8        30.13F HX  97
WHITEMAN AFB   MOSUNNY   86  75  68 N7        30.11F HX  95
OSAGE BEACH    PTSUNNY   89  74  60 CALM      30.12F HX  98

$$
MOZ051-052-059>065-302000-
...EAST CENTRAL MISSOURI...

CITY           SKY/WX    TMP DP  RH WIND       PRES   REMARKS
ST LOUIS INTL  TSTM      76  70  82 NE16G28   30.13R
SPIRIT OF STL  PTSUNNY   81  72  74 N15       30.11R
ST CHARLES     LGT RAIN  74  71  91 NE6       30.14R

$$
MOZ072>076-082>087-097>100-106>115-302000-
...SOUTH CENTRAL AND SOUTHEAST MISSOURI...

CITY           SKY/WX    TMP DP  RH WIND       PRES   REMARKS
CAPE GIRARDEAU SUNNY     91  71  51 NE8       30.06F HX  97
POPLAR BLUFF   MOSUNNY   91  74  57 NE5       30.06F HX 100
WEST PLAINS    SUNNY     89  70  53 E5        30.14F HX  94

$$




USA.gov is the U.S. government's official web portal to all federal, state and local government web resources and services.